Regional Weather Roundup
Issued by NWS

Home | Current Version | Previous Version | Graphics & Text | Print | Product List | Glossary On
Versions: 1 2 3 4 5 6 7 8 9 10 11 12 13 14 15 16 17 18 19 20 21 22 23 24 25 26 27 28 29 30 31 32 33 34 35 36 37 38 39 40 41 42 43 44 45 46 47 48 49 50
000
ASUS43 KMPX 241301
RWRMN
WEATHER ROUNDUP FOR MINNESOTA
NATIONAL WEATHER SERVICE TWIN CITIES/CHANHASSEN MN
800 AM CDT MON APR 24 2017


NOTE: "FAIR" INDICATES FEW OR NO CLOUDS BELOW 12,000 FEET WITH NO
SIGNIFICANT WEATHER AND/OR OBSTRUCTIONS TO VISIBILITY. N/A MEANS
CURRENT SKY AND/OR WEATHER CONDITIONS ARE NOT AVAILABLE.

MNZ060>063-068>070-241400-
   Twin Cities Metro

CITY           SKY/WX    TMP DP  RH WIND       PRES   REMARKS
TWIN CITIES    CLOUDY    56  34  43 S9        29.80F
ST PAUL        CLOUDY    54  39  57 SE6       29.81F
CRYSTAL        PTSUNNY   54  35  48 SE6       29.78F
BLAINE         PTSUNNY   54  37  54 SE9       29.80S
LAKEVILLE      CLOUDY    52  37  58 S6        29.80F
EDEN PRAIRIE   CLOUDY    56  36  47 S9        29.78F
SOUTH ST PAUL  PTSUNNY   54  36  50 SE6       29.81S
LAKE ELMO      FAIR      50  41  71 E5        29.83F
$$
MNZ001>005-007-008-013>017-022>024-027-028-241400-
   Northwest Minnesota

CITY           SKY/WX    TMP DP  RH WIND       PRES   REMARKS
BEMIDJI        CLOUDY    33  29  85 E15G21    29.75S WCI  23
HALLOCK        CLOUDY    36  28  75 E18G24    29.79F
ROSEAU         CLOUDY    34  28  80 E17G26    29.83S WCI  23
WARROAD        CLOUDY    34  30  86 E24G31    29.83F WCI  21
THIEF RVR FALL CLOUDY    34  30  85 E15       29.76S WCI  24
CROOKSTON      CLOUDY    36  30  80 E16       29.74R
FOSSTON        CLOUDY    34  27  75 E13G18    29.72R WCI  25
DETROIT LAKES  CLOUDY    37  32  81 SE14      29.68F
MOORHEAD       CLOUDY    39  32  75 NE6       29.65S
PARK RAPIDS    MOSUNNY   36  27  69 E9        29.72S
MAHNOMEN       CLOUDY    35  29  79 SE13G21   29.67F WCI  27
$$
MNZ006-009>011-018-025>026-241400-
   North Central Minnesota

CITY           SKY/WX    TMP DP  RH WIND       PRES   REMARKS
BAUDETTE       MIX PCPN  32  28  85 E15G30    29.84F WCI  22
FLAG ISLAND    LGT SNOW  30  27  86 E10G17    29.89F WCI  21
INTL FALLS     MIX PCPN  31  27  85 E14G22    29.90S WCI  21
WASKISH        CLOUDY    30  28  93 E15G23    29.80F WCI  19
BIG FORK       MOSUNNY   32  27  80 E9G16     29.83F WCI  24
LONGVILLE      CLOUDY    34  30  86 E6        29.76F WCI  29
GRAND RAPIDS   CLOUDY    33  28  81 E15G22    29.81F WCI  23
CRANE LAKE     CLOUDY    30  27  86 E3        29.95F
ORR            CLOUDY    30  23  74 MISG      29.86F
COOK           CLOUDY    30  23  74 E8        29.88F WCI  23
WALKER         CLOUDY    34  30  86 E10G20    29.76S WCI  26
$$
MNZ012-019>021-037-241400-
   Northeast Minnesota

CITY           SKY/WX    TMP DP  RH WIND       PRES   REMARKS
DULUTH         CLOUDY    33  26  75 E22G30    29.88F WCI  21
ELY            CLOUDY    28  23  80 E10G20    29.93S WCI  19
HIBBING        CLOUDY    31  26  82 E15       29.86F WCI  20
EVELETH        CLOUDY    32  22  67 E9G20     29.89F WCI  24
DULUTH HARBOR  MOSUNNY   37  32  81 NE30      29.93F
TWO HARBORS    CLOUDY    36  28  75 E20G30    29.92F
SILVER BAY     CLOUDY    34  27  75 E15G25    29.95F WCI  24
GRAND MARAIS     N/A     34  28  79 NE21G29   30.05S WCI  22
G MARAIS ARPRT CLOUDY    27  19  74 E9G18     29.99S WCI  17
$$
MNZ029>031-032-039>041-046>048-054>057-064-241400-
   West Central Minnesota

CITY           SKY/WX    TMP DP  RH WIND       PRES   REMARKS
FERGUS FALLS   CLOUDY    43  34  70 SE15      29.62F
WHEATON        CLOUDY    46  37  71 SE14      29.61S
MORRIS         CLOUDY    48  37  66 SE17      29.62F
ALEXANDRIA     MOSUNNY   41  35  79 SE13      29.68F
ELBOW LAKE     FAIR      47  36  64 SE14G21   29.63F
WADENA         CLOUDY    36  30  80 E13       29.69F
GLENWOOD       MOSUNNY   45  37  76 SE13      29.68S
BENSON         MOSUNNY   54  32  43 S12       29.66F
ORTONVILLE     CLOUDY    50  37  62 SE10      29.60F
MADISON        PTSUNNY   57  37  47 S17       29.61F
WILLMAR        FAIR      54  37  54 SE14      29.69F
$$
MNZ033>034-036-042>043-049>051-058-059-241400-
   Central Minnesota

CITY           SKY/WX    TMP DP  RH WIND       PRES   REMARKS
ST CLOUD       PTSUNNY   42  36  79 E9        29.75F
SAUK CENTRE    FAIR      41  36  81 E9        29.70F
PAYNESVILLE    CLOUDY    49  37  63 SE10      29.72F
AITKIN         CLOUDY    37  28  70 E9G16     29.77F
PINE RIVER     CLOUDY    36  30  80 E9        29.79F
BRAINERD       CLOUDY    39  33  79 VRB7      29.76F
STAPLES        CLOUDY    36  30  80 E9        29.72F
LONG PRAIRIE   FAIR      37  34  87 NE5       29.71F
LITTLE FALLS   CLOUDY    39  32  75 E7        29.74F
LITCHFIELD     CLOUDY    54  39  58 SE8       29.73F
BUFFALO        CLOUDY    53  36  53 SE8       29.77F
MAPLE LAKE     CLOUDY    48  41  77 SE3       29.76F
HUTCHINSON     CLOUDY    53  38  57 SE9       29.75F
$$
MNZ037-044-045-052-053-241400-
   East Central Minnesota

CITY           SKY/WX    TMP DP  RH WIND       PRES   REMARKS
PRINCETON      CLOUDY    43  37  81 E6        29.78F
MORA           CLOUDY    36  32  87 E6        29.83S
CAMBRIDGE      CLOUDY    48  37  66 E6        29.78F
RUSH CITY      PTSUNNY   41  37  86 E3        29.82F
MOOSE LAKE     CLOUDY    34  28  80 E7        29.84F WCI  28
HINCKLEY       FAIR      37  34  87 E6        29.84S
CLOQUET        CLOUDY    34  27  75 E14G23    29.86F WCI  24
MCGREGOR       CLOUDY    36  32  87 E10       29.81F
$$
MNZ071>073-080-081-089-090-097-098-241400-
   Southwest Minnesota

CITY           SKY/WX    TMP DP  RH WIND       PRES   REMARKS
MONTEVIDEO     CLOUDY    55  36  47 SW13      29.65S
GRANITE FALLS  CLOUDY    56  39  51 SE18      29.68F
CANBY          CLOUDY    56  35  45 SW20G30   29.62F
MARSHALL       CLOUDY    56  35  45 S28G35    29.64F
REDWOOD FALLS  PTSUNNY   54  35  48 S20       29.69F
OLIVIA         CLOUDY    52  36  54 S13       29.70S
PIPESTONE      CLOUDY    52  34  50 S16G24    29.66F
WINDOM         CLOUDY    54  36  50 S17G25    29.72F
WORTHINGTON    CLOUDY    51  36  56 S18       29.71F
JACKSON        MOSUNNY   52  34  50 S16G23    29.76F
TRACY          CLOUDY    55  37  50 S18G25    29.68F
SLAYTON        PTSUNNY   53  35  51 S20G26    29.70F
$$
MNZ065>067-074>077-082>085-091>093-241400-
   South Central Minnesota

CITY           SKY/WX    TMP DP  RH WIND       PRES   REMARKS
MANKATO        CLOUDY    53  35  50 S13G21    29.79F
NEW ULM        PTSUNNY   54  36  50 S17       29.74F
ST JAMES       PTSUNNY   54  36  50 S20       29.77F
FAIRMONT       PTSUNNY   51  36  56 S15       29.79S
GLENCOE        CLOUDY    54  39  57 S8        29.76F
FARIBAULT      CLOUDY    54  36  50 S10G17    29.82F
OWATONNA       CLOUDY    52  34  50 S14       29.82F
WASECA         CLOUDY    54  36  50 S16       29.82F
ALBERT LEA     CLOUDY    48  34  57 S10       29.83S
$$
MNZ078>079-086>088-094>096-241400-
   Southeast Minnesota

CITY           SKY/WX    TMP DP  RH WIND       PRES   REMARKS
ROCHESTER      CLOUDY    50  36  58 S10       29.86F
RED WING       CLOUDY    55  32  41 SE10G16   29.83F
STANTON        CLOUDY    54  36  51 S9        29.80F
DODGE CENTER   CLOUDY    52  36  54 S13       29.84F
WINONA         PTSUNNY   48  43  81 SE9       29.91S
AUSTIN         CLOUDY    50  36  57 S7        29.85F
PRESTON        CLOUDY    50  34  54 S8        29.89S
$$
ABBREVIATIONS USED IN REMARKS
   TC - TEMPERATURES IN CELSIUS
  WCI - WIND CHILL INDEX
   HX - HEAT INDEX
  VSB - VISIBILITY
$$



USA.gov is the U.S. government's official web portal to all federal, state and local government web resources and services.